TimeAKDT,TemperatureF,Dew PointF,Humidity,Sea Level PressureIn,VisibilityMPH,Wind Direction,Wind SpeedMPH,Gust SpeedMPH,PrecipitationIn,Events,Conditions,WindDirDegrees,DateUTC
12:53 AM,55.0,45.0,69,29.76,10.0,ESE,4.6,-,N/A,,Partly Cloudy,120,2013-08-08 08:53:00
1:53 AM,54.0,46.0,75,29.77,10.0,NE,5.8,-,N/A,,Scattered Clouds,40,2013-08-08 09:53:00
2:53 AM,55.9,45.0,67,29.76,10.0,East,10.4,-,N/A,,Overcast,100,2013-08-08 10:53:00
3:53 AM,55.9,45.0,67,29.75,10.0,NE,6.9,-,N/A,,Mostly Cloudy,50,2013-08-08 11:53:00
4:53 AM,53.1,46.0,77,29.75,10.0,NNE,9.2,-,N/A,,Clear,30,2013-08-08 12:53:00
5:53 AM,53.1,46.0,77,29.75,10.0,NNE,9.2,-,N/A,,Overcast,20,2013-08-08 13:53:00
6:53 AM,52.0,46.9,83,29.75,10.0,North,6.9,-,N/A,,Mostly Cloudy,350,2013-08-08 14:53:00
7:53 AM,53.1,46.9,80,29.75,10.0,NNW,6.9,-,N/A,,Mostly Cloudy,340,2013-08-08 15:53:00
8:53 AM,57.9,48.0,70,29.75,10.0,NNE,6.9,-,N/A,,Scattered Clouds,20,2013-08-08 16:53:00
9:53 AM,61.0,48.0,62,29.74,10.0,East,6.9,-,N/A,,Mostly Cloudy,100,2013-08-08 17:53:00
10:53 AM,62.1,48.9,62,29.74,10.0,SE,15.0,-,N/A,,Mostly Cloudy,130,2013-08-08 18:53:00
11:53 AM,62.1,48.9,62,29.75,10.0,ESE,5.8,-,N/A,,Overcast,120,2013-08-08 19:53:00
12:53 PM,64.0,53.1,67,29.77,10.0,South,9.2,-,0.00,,Overcast,190,2013-08-08 20:53:00
1:53 PM,66.0,52.0,60,29.77,10.0,South,8.1,16.1,0.00,,Mostly Cloudy,190,2013-08-08 21:53:00
2:53 PM,66.0,48.9,54,29.77,10.0,SE,15.0,20.7,N/A,,Overcast,140,2013-08-08 22:53:00
3:53 PM,66.9,50.0,54,29.76,10.0,SSE,15.0,-,N/A,,Scattered Clouds,160,2013-08-08 23:53:00
4:53 PM,69.1,48.9,49,29.76,10.0,South,18.4,24.2,N/A,,Clear,180,2013-08-09 00:53:00
5:53 PM,64.0,53.1,67,29.77,10.0,WSW,13.8,19.6,N/A,,Scattered Clouds,250,2013-08-09 01:53:00
6:53 PM,59.0,48.0,67,29.80,10.0,WSW,9.2,18.4,N/A,,Scattered Clouds,240,2013-08-09 02:53:00
7:53 PM,57.0,48.0,72,29.82,10.0,SSW,4.6,-,N/A,,Partly Cloudy,210,2013-08-09 03:53:00
8:53 PM,55.9,48.0,75,29.82,10.0,SSE,5.8,-,N/A,,Clear,160,2013-08-09 04:53:00
9:53 PM,55.0,48.9,80,29.83,10.0,SSE,5.8,-,N/A,,Partly Cloudy,160,2013-08-09 05:53:00
10:53 PM,54.0,46.9,77,29.83,10.0,West,3.5,-,N/A,,Overcast,260,2013-08-09 06:53:00
11:53 PM,55.0,45.0,69,29.83,10.0,WNW,3.5,-,N/A,,Overcast,290,2013-08-09 07:53:00